Theta_e
319 321 322 323 323 325 326 328 327 325 323 316 316 317 315 320 320 320 320 320 320 319 320 319 320 319 320 319 320 318 318 319 319 323 326 333 334 338 335 329 340 341 344 347 343 341 340 344 344 344 345 344 345 344 343 342 340 339 338 336 335 337 340 339 340 340 340 341 339 339 339 338 338 338 338 338 338 338 338 338 338 338 337 335 331 329 327 321 315 313 311 313 316 318 318 320 328
319 320 322 324 324 326 331 329 325 320 317 314 315 316 316 320 320 320 319 320 319 319 320 319 320 319 320 319 320 319 319 320 320 324 328 332 331 335 332 330 341 341 343 346 343 341 339 343 344 343 344 344 345 344 344 342 341 339 338 337 335 337 340 339 340 340 340 340 338 337 337 337 337 338 338 338 338 338 338 338 338 338 337 334 331 329 323 315 312 311 308 310 314 317 316 313 320
319 321 322 323 325 327 331 327 322 316 314 313 313 316 318 319 318 319 319 319 319 319 319 320 320 319 320 320 319 319 319 320 323 324 327 331 332 333 328 329 341 342 343 346 344 341 340 342 343 343 343 344 344 344 344 342 341 340 339 338 336 337 339 339 339 338 339 339 336 336 336 336 335 337 338 338 338 337 337 337 337 336 334 332 330 327 321 316 313 311 307 309 314 315 312 308 312
320 324 324 323 328 329 330 328 324 317 313 313 313 318 319 318 318 318 319 319 319 319 319 319 319 319 319 319 319 319 319 321 324 325 328 331 334 334 327 328 340 343 342 345 345 342 343 341 341 342 343 344 344 344 344 343 342 340 340 338 336 336 338 338 338 337 338 337 335 336 336 334 335 337 337 337 337 337 337 337 336 334 332 331 330 326 322 318 314 311 306 304 308 308 307 304 305
322 326 325 323 331 329 326 325 323 319 315 315 313 318 319 317 318 317 318 318 318 319 318 319 318 319 318 319 319 319 320 321 324 327 332 332 333 335 331 331 338 342 341 343 344 343 344 343 340 340 343 344 344 345 344 343 342 340 340 338 337 335 337 338 337 337 337 336 335 336 336 334 335 337 337 337 336 336 337 336 334 333 333 332 330 328 324 320 315 311 306 301 301 302 302 301 302
322 324 324 324 328 325 324 320 318 318 318 319 315 317 318 317 317 317 317 317 317 317 317 318 318 319 318 319 320 321 322 321 324 330 334 332 332 337 336 335 337 340 342 342 343 343 344 344 340 339 342 344 344 344 344 343 342 341 340 339 337 335 336 337 337 337 336 335 334 336 336 334 335 336 336 336 336 336 336 334 332 331 332 331 329 328 326 321 315 311 306 300 299 300 300 300 300
322 324 327 327 327 325 326 320 317 319 319 320 317 317 318 317 318 317 317 317 316 316 316 318 317 318 317 319 321 324 327 324 328 333 333 332 333 338 339 337 338 340 342 344 343 343 344 344 342 339 341 344 344 344 344 343 342 341 340 339 338 335 335 336 337 336 335 334 334 336 336 335 336 336 335 335 336 336 336 333 331 331 331 330 328 328 327 322 316 311 306 300 299 299 299 300 300
323 326 329 329 329 326 325 322 320 320 319 320 319 318 318 317 319 317 317 317 317 317 316 317 317 317 317 320 320 323 329 327 330 333 332 332 333 336 340 339 338 341 342 344 344 343 344 344 344 341 341 343 344 344 344 343 342 342 340 340 338 336 334 335 336 336 335 333 334 337 337 336 335 335 335 334 335 336 335 333 331 331 331 330 329 329 327 323 316 310 305 300 299 299 299 300 300
323 326 327 328 328 322 321 321 320 319 319 319 317 318 318 318 319 318 317 316 316 317 316 317 317 316 317 319 318 319 323 325 328 332 331 330 333 334 339 341 340 342 343 343 343 342 342 343 343 342 341 343 344 344 344 343 342 342 341 340 339 337 334 335 336 334 334 333 334 337 338 338 336 335 335 335 335 335 334 332 332 332 332 331 330 329 328 324 317 311 305 301 299 299 299 299 300
323 324 325 328 324 318 316 319 320 320 319 319 317 317 317 317 318 318 317 317 317 317 316 317 317 316 317 317 317 316 319 322 323 330 332 329 330 331 334 339 341 342 343 343 343 342 341 341 341 341 342 342 343 343 343 343 342 342 341 340 339 337 334 334 335 333 333 334 334 337 338 338 337 336 335 336 335 335 333 331 333 333 332 330 329 329 328 324 318 312 306 301 299 298 299 299 299
325 323 323 325 320 315 314 318 322 321 319 319 318 317 317 317 317 317 317 317 317 317 316 316 317 316 316 317 316 315 315 319 322 328 333 330 328 328 329 333 338 340 341 342 342 340 340 339 338 340 342 342 343 343 343 342 342 342 341 340 339 338 336 335 335 333 333 334 336 338 338 338 338 336 335 335 335 335 333 331 333 333 331 330 330 329 328 325 319 314 309 302 299 299 299 299 300
327 324 322 321 319 318 317 320 321 321 320 319 318 317 317 317 317 317 317 317 317 317 317 316 316 315 317 318 316 314 312 314 319 326 331 332 331 329 326 328 334 336 338 339 340 340 340 339 337 339 342 342 343 342 343 343 343 342 341 341 339 338 337 335 335 334 333 334 336 338 338 338 338 337 336 335 335 334 332 332 332 331 331 330 330 329 328 326 321 317 312 305 300 299 299 299 300
328 326 323 319 322 322 319 321 322 323 321 319 318 316 317 317 317 317 317 317 317 317 316 316 316 316 317 318 316 314 313 312 315 324 331 332 333 333 327 325 328 331 334 336 338 338 338 339 337 339 342 342 342 342 342 342 342 342 341 341 340 339 338 336 335 334 333 334 336 337 337 338 338 337 336 335 335 334 332 332 332 331 331 331 330 329 328 326 322 319 316 309 302 299 299 299 300
327 324 323 322 322 321 319 321 321 320 319 318 317 316 317 317 317 317 317 317 316 316 315 316 316 316 316 316 317 314 313 313 313 322 331 331 332 332 327 325 325 328 333 335 337 336 336 338 338 339 340 340 340 340 340 341 342 342 341 341 340 339 338 337 335 334 333 333 333 336 337 337 337 337 337 336 335 333 332 332 332 332 331 330 329 328 327 325 323 320 317 314 307 300 299 300 300
325 323 325 323 319 318 320 323 321 319 318 318 317 317 317 316 317 316 317 316 316 316 315 316 315 316 316 316 317 314 313 314 314 321 329 331 330 330 329 328 326 328 332 333 334 334 335 337 338 339 339 339 338 338 339 339 340 341 341 341 340 339 339 338 336 334 333 332 332 334 336 337 337 336 336 336 335 333 332 333 332 331 330 330 328 328 327 324 321 319 318 316 312 304 299 299 300
323 324 326 321 317 316 318 321 320 318 318 318 316 317 317 316 317 316 316 316 316 318 316 315 315 315 315 315 314 313 313 314 316 321 327 329 329 328 330 330 328 328 331 333 333 332 333 335 336 338 339 340 339 338 339 339 339 340 340 340 341 340 339 339 337 335 334 332 332 333 334 335 336 336 336 336 335 333 332 333 332 331 330 329 328 328 326 323 321 320 319 318 316 310 302 299 299
322 325 324 319 317 316 316 319 319 318 318 318 317 317 318 316 317 316 315 315 316 317 316 314 314 314 313 313 313 313 314 315 316 319 322 324 326 324 323 324 324 324 326 328 329 330 331 333 334 336 337 338 339 339 340 340 340 340 340 339 340 340 339 339 337 336 335 333 331 331 332 333 334 336 336 335 335 334 332 333 332 331 330 329 328 328 326 323 322 321 320 319 317 315 310 303 299
325 328 322 318 320 317 317 319 319 320 319 318 317 317 317 317 316 316 315 316 316 316 315 314 314 313 313 313 313 314 314 316 316 318 318 319 320 319 319 320 320 320 320 321 321 323 327 330 333 335 335 337 338 339 339 340 340 340 340 339 339 339 339 338 337 336 335 334 332 331 331 332 333 335 336 335 335 334 333 333 332 330 330 329 328 328 325 324 324 322 321 320 318 318 316 311 304
323 326 321 318 320 317 317 319 318 320 319 317 317 317 316 316 317 315 315 316 316 316 315 315 315 314 314 313 313 314 314 316 316 317 318 317 318 317 318 318 318 318 318 318 319 320 321 325 329 333 334 336 337 337 339 339 340 340 340 339 339 338 338 338 337 337 336 335 334 333 332 333 335 336 335 335 335 334 333 332 332 331 329 329 329 327 325 325 325 323 322 321 320 318 317 316 312
320 321 321 319 318 316 316 318 317 317 318 317 317 316 315 316 316 315 316 316 316 316 315 315 316 314 313 313 313 314 314 315 316 317 317 317 317 317 317 317 317 318 318 319 320 320 320 320 324 330 333 334 336 336 337 338 339 339 339 340 339 338 338 338 337 337 337 336 335 334 334 335 336 336 336 335 335 334 333 332 332 331 329 329 329 328 327 326 325 324 323 321 320 319 318 316 314
318 317 320 317 315 316 316 317 317 317 317 316 317 316 315 316 316 316 315 316 317 315 314 314 315 314 313 313 313 314 314 315 316 316 316 316 317 316 316 316 316 317 318 319 319 319 319 318 320 326 331 333 334 336 336 336 337 337 339 339 339 339 338 338 338 337 337 337 335 334 335 336 336 336 336 336 335 334 333 332 332 331 330 330 330 329 328 327 326 324 322 321 320 319 318 316 315
318 316 318 316 315 316 316 317 317 316 316 315 316 315 315 316 315 316 315 316 317 314 313 313 313 312 312 312 313 313 314 314 315 315 315 315 315 315 315 315 315 316 317 318 318 318 318 318 317 320 327 332 333 335 336 335 336 337 338 338 338 339 338 339 338 338 338 337 336 335 336 337 336 335 336 336 334 334 333 332 332 331 331 330 329 330 329 327 325 324 323 321 320 320 318 317 316
317 317 317 316 316 316 316 317 316 316 315 315 315 315 315 316 316 316 317 317 315 312 311 311 311 311 312 312 313 313 313 313 314 314 314 314 315 314 314 315 316 316 317 317 317 317 317 318 317 317 322 330 332 334 335 334 335 336 336 337 337 338 338 338 337 337 337 337 337 336 336 336 336 335 334 335 334 333 333 332 331 331 331 330 329 329 328 326 325 325 323 322 321 320 319 318 317
318 318 317 317 316 316 317 317 316 315 315 316 315 315 315 315 316 316 316 314 312 311 311 311 311 311 312 312 312 312 313 313 313 314 314 313 314 314 314 314 315 316 316 316 316 317 317 317 319 318 319 328 332 332 335 335 335 336 336 337 336 337 337 337 336 335 336 336 336 336 336 336 335 334 333 333 333 333 333 332 332 331 331 330 329 329 328 327 325 324 323 322 321 320 319 318 318
318 318 317 317 316 316 317 317 316 315 315 316 315 315 315 315 315 315 315 312 311 311 311 310 311 311 311 311 312 312 312 312 313 313 314 313 313 313 313 313 315 315 315 315 315 316 318 318 320 320 319 327 331 331 334 334 335 336 335 335 336 336 336 336 335 335 335 335 335 336 335 335 334 334 333 333 332 332 332 333 332 331 331 330 329 329 328 326 325 323 323 322 321 320 319 318 318
317 317 317 317 317 316 316 316 316 316 315 316 316 315 316 316 315 315 314 312 311 311 311 311 311 311 311 311 311 311 311 311 312 313 313 312 311 312 312 312 313 313 313 314 315 317 319 319 322 321 320 326 329 330 333 333 335 336 334 334 335 335 334 334 334 334 333 333 334 334 334 334 334 334 333 332 332 332 332 332 332 331 330 329 328 328 326 325 324 323 322 321 321 320 318 318 318
316 316 316 316 317 317 317 316 316 316 316 316 315 315 316 315 316 315 312 311 311 311 311 311 312 311 311 311 311 311 311 311 312 311 311 311 310 310 311 311 312 313 313 314 316 318 320 320 322 323 324 327 329 330 332 333 334 334 333 332 333 333 332 332 332 332 331 331 332 332 332 332 333 333 333 332 332 331 331 331 330 330 329 329 328 327 325 324 324 323 322 321 321 320 318 317 318
316 316 316 317 317 317 317 317 317 317 316 316 315 315 315 314 315 315 312 311 311 311 311 311 312 311 311 311 311 310 310 311 311 310 309 309 309 309 309 308 311 313 313 313 315 318 320 321 322 324 327 329 329 330 331 331 331 331 331 331 331 330 330 330 330 330 330 330 330 330 330 330 330 331 332 331 331 331 331 331 330 329 329 328 327 326 324 324 324 323 322 321 320 319 319 318 317
315 316 316 318 318 318 318 317 317 317 316 316 315 315 316 314 314 313 311 311 312 312 312 312 312 312 311 311 310 310 310 310 310 309 309 309 309 308 308 308 311 313 312 312 315 317 319 320 321 324 327 328 329 329 329 328 328 328 328 328 328 328 329 329 328 328 328 328 328 328 327 327 328 329 329 330 330 329 329 329 328 328 328 327 326 325 324 323 323 322 321 320 320 319 319 318 318
316 316 316 318 319 319 319 317 316 316 315 315 314 317 318 315 313 312 311 312 312 313 312 312 312 311 311 310 311 310 309 309 308 308 308 308 307 307 307 309 312 312 311 313 314 315 318 320 322 323 325 327 327 327 327 327 327 327 326 327 327 327 327 327 327 326 326 326 326 326 325 325 325 326 327 328 328 327 326 326 326 325 325 324 324 323 323 322 321 320 320 320 319 319 318 318 317
316 318 318 319 320 319 317 316 316 315 315 314 314 317 319 316 313 311 311 312 312 313 313 313 312 311 311 311 311 310 309 308 308 308 308 307 306 306 307 310 312 312 312 313 313 313 315 318 321 323 324 326 326 326 325 326 326 326 325 325 325 325 325 325 324 324 324 324 325 325 325 324 324 324 325 326 325 325 324 323 322 322 321 321 322 322 321 321 320 320 319 319 318 317 317 315 314
318 319 321 321 321 319 317 316 316 315 314 313 314 317 318 316 314 312 311 312 313 314 314 313 312 311 311 311 310 310 309 308 307 307 307 306 305 305 307 310 311 311 312 312 312 312 313 315 318 321 323 325 324 324 324 325 325 324 323 322 322 322 322 322 322 322 322 323 324 324 324 324 324 323 323 324 324 323 322 321 320 320 320 321 321 320 320 319 319 318 318 316 315 313 313 312 311
321 321 321 322 321 320 318 316 316 316 314 313 314 317 317 316 315 313 312 312 313 314 315 313 312 311 311 311 310 310 309 308 307 306 305 305 304 305 307 310 311 311 311 311 311 311 312 313 315 317 319 322 322 323 322 323 323 321 321 320 319 319 319 319 319 320 321 321 322 322 321 322 322 321 321 321 321 320 319 318 317 316 318 319 318 317 316 315 314 314 313 311 310 309 309 308 308
323 322 321 321 322 319 318 317 316 317 316 314 315 315 317 317 315 313 312 312 313 314 315 314 312 312 311 311 310 310 310 309 306 305 305 304 304 305 307 309 309 310 310 310 310 310 311 311 312 314 315 317 320 321 320 319 319 318 317 316 316 315 314 313 315 317 316 316 317 316 317 317 317 317 317 316 316 314 314 313 313 313 314 315 313 312 310 309 309 308 307 304 303 303 302 302 304
322 322 321 321 321 320 319 318 317 317 316 316 316 316 316 317 314 313 313 312 312 313 315 314 312 311 311 311 310 310 310 308 306 305 305 304 304 305 307 307 308 309 309 310 309 309 310 309 309 310 312 312 313 316 316 315 315 313 312 312 311 310 309 309 311 311 310 311 311 310 311 312 312 312 312 312 311 310 309 309 309 309 310 311 310 309 307 305 305 305 302 297 295 296 296 299 303
321 321 321 321 319 319 319 318 316 316 316 316 318 317 318 318 315 313 313 313 313 314 315 314 312 311 311 311 310 311 310 306 305 305 305 304 303 304 306 306 307 308 309 309 309 308 309 308 307 307 308 308 308 309 310 309 309 308 308 309 308 306 306 307 307 307 306 306 306 306 307 307 306 306 306 306 306 305 304 303 303 303 304 306 306 305 304 304 303 302 299 294 292 292 292 295 300
321 321 321 321 319 319 319 317 316 316 317 318 319 319 319 319 317 314 313 313 314 315 315 314 312 311 310 311 311 310 309 306 305 305 304 304 303 304 305 306 307 307 308 308 308 308 307 307 307 306 306 306 305 305 306 305 305 304 305 305 303 302 302 304 303 303 303 303 303 304 304 303 303 303 302 301 301 299 298 297 297 298 298 300 301 301 302 303 303 302 300 297 294 294 292 291 295
320 320 320 320 320 319 320 318 315 315 318 319 319 319 319 319 319 317 314 313 313 314 315 313 312 311 311 311 311 310 308 306 305 304 305 304 303 304 303 304 306 306 307 308 307 307 306 306 306 305 305 305 304 304 304 303 302 303 303 300 300 300 299 300 299 299 299 300 301 301 300 300 301 300 299 298 297 295 294 293 292 292 293 295 296 298 300 301 301 300 299 297 295 295 293 291 291
321 321 320 321 320 320 320 318 315 315 317 319 319 319 319 319 320 318 315 313 313 314 314 314 312 311 311 311 310 309 307 306 305 304 305 304 303 303 303 303 304 305 306 306 305 306 306 305 304 304 304 304 303 303 304 303 302 303 303 300 299 299 297 296 296 296 297 297 297 297 297 297 296 296 295 294 293 292 291 291 290 290 290 291 292 293 295 296 297 296 295 294 293 294 293 291 290
321 321 321 321 321 321 321 317 315 315 316 318 319 319 319 318 319 319 317 314 314 314 314 315 314 312 311 311 309 308 307 307 306 305 305 304 303 303 302 302 303 304 304 304 304 304 305 304 304 304 303 302 302 302 302 302 302 301 301 299 298 297 295 295 295 295 295 295 293 293 293 292 292 292 291 291 291 291 290 290 290 290 290 290 290 290 290 290 291 292 293 292 292 292 292 291 291
322 323 321 321 321 321 321 319 318 317 317 318 318 320 321 320 320 320 316 313 313 312 311 313 312 311 311 311 310 308 308 307 306 305 304 304 303 302 302 302 303 303 303 303 303 303 303 302 302 303 302 301 301 301 301 302 302 300 298 296 295 295 294 294 293 292 291 291 290 290 290 290 290 290 290 290 290 290 290 289 289 289 289 289 289 288 288 288 288 289 290 291 291 290 290 290 290
322 324 322 320 320 321 322 324 323 323 324 319 318 326 329 323 322 322 316 313 313 311 310 311 310 309 309 309 309 308 309 307 305 305 304 303 302 301 301 302 302 302 302 302 302 302 302 301 301 301 300 300 300 300 300 300 300 298 296 295 294 293 292 291 290 289 289 289 289 289 289 289 289 290 289 289 289 289 289 289 289 288 288 288 288 288 288 288 288 288 288 288 289 289 289 289 289
321 326 326 321 320 322 324 324 325 327 327 321 319 327 329 324 322 323 317 313 313 311 310 310 309 308 307 307 307 307 307 307 305 304 303 302 302 301 301 301 301 300 300 300 300 301 300 300 300 300 299 299 299 299 299 298 297 296 295 294 292 291 290 289 289 288 288 288 288 289 288 289 289 289 288 288 288 288 288 288 288 288 288 287 287 287 287 287 287 287 287 287 287 288 288 289 290
324 328 328 323 321 324 324 324 326 327 325 322 320 323 326 324 323 322 318 315 314 311 309 310 309 307 306 306 306 305 305 305 305 304 303 302 302 301 300 300 300 299 299 299 299 300 300 300 300 300 299 299 298 298 298 297 297 296 294 292 291 290 289 289 288 288 287 287 287 288 287 287 287 287 287 287 287 287 287 287 287 287 287 287 287 287 287 287 287 287 287 287 287 286 287 289 290
325 326 325 324 323 324 324 324 327 326 325 326 323 323 326 326 324 321 319 317 317 314 310 309 309 307 306 306 306 305 304 304 304 304 303 302 301 300 299 299 299 298 298 298 299 299 299 299 299 299 299 298 298 298 297 297 296 295 293 291 290 289 289 289 288 287 287 287 286 286 286 287 287 287 287 287 287 287 287 287 287 287 287 287 287 287 286 286 286 286 286 286 286 286 286 287 288
324 325 324 324 324 323 323 324 326 324 325 326 325 324 327 328 325 322 321 320 320 317 313 310 309 307 306 306 306 305 304 304 304 302 301 300 299 298 298 297 298 298 298 298 298 298 298 298 298 298 298 297 297 296 296 295 294 293 291 290 290 289 289 289 288 288 287 287 286 286 286 286 286 286 287 287 287 287 287 287 287 287 286 286 286 286 286 286 286 285 285 285 285 285 285 285 286
323 324 324 323 322 322 322 322 323 324 325 325 325 324 325 328 329 324 321 321 321 320 315 311 309 307 306 306 305 304 304 304 304 301 299 298 297 297 297 297 297 297 297 297 298 298 298 298 298 297 296 296 295 295 295 294 292 291 290 290 290 290 290 289 289 288 287 287 286 286 286 286 286 286 286 286 286 286 286 286 286 286 286 286 286 286 286 286 285 285 285 285 285 285 285 285 285
322 323 324 324 323 321 322 322 322 325 327 325 324 323 324 327 329 323 320 319 319 319 315 311 310 307 306 306 304 303 303 303 302 300 298 296 296 296 296 296 296 296 297 297 297 297 297 297 297 296 295 295 294 294 293 292 291 291 290 290 290 290 289 289 289 288 288 287 287 286 286 286 286 286 286 286 286 286 286 286 286 286 286 286 286 286 286 285 285 285 285 285 285 285 285 284 284
322 324 325 327 326 324 325 325 324 326 326 321 320 323 325 326 324 321 320 317 317 318 315 311 309 307 306 305 303 303 302 301 301 299 297 296 295 296 296 296 296 296 297 297 296 296 296 296 296 295 294 294 294 293 293 292 291 291 291 290 290 290 289 289 289 289 288 288 287 286 286 286 286 286 286 286 286 286 286 286 286 286 286 286 285 285 285 285 285 285 285 284 284 284 284 284 284
321 323 325 328 329 328 330 328 326 328 325 320 318 321 325 326 323 321 319 315 314 315 315 312 309 306 306 304 303 303 302 301 300 299 298 296 296 296 296 296 296 296 296 296 296 296 295 295 295 295 294 293 293 293 292 292 292 291 291 291 290 290 290 290 290 289 288 288 287 286 286 286 286 286 286 286 285 286 286 286 286 285 285 285 285 285 285 285 285 284 284 284 284 284 284 283 283
319 320 322 326 328 331 333 330 329 330 325 320 319 322 328 329 322 316 313 311 310 312 312 310 308 306 305 304 303 303 302 301 301 299 298 297 296 296 296 296 296 296 296 296 295 295 295 294 294 294 293 293 293 292 292 292 291 291 291 291 290 290 290 290 289 288 288 287 286 286 286 286 286 286 285 285 285 285 285 285 285 285 285 285 284 284 284 284 284 284 284 283 283 283 283 283 282
319 320 322 324 326 328 330 327 324 325 324 321 322 325 326 322 316 311 309 309 308 310 311 309 307 306 304 304 303 303 302 301 301 300 298 297 296 296 296 296 296 296 296 296 295 295 294 294 293 293 292 292 292 291 291 291 291 290 290 290 290 289 289 288 288 287 287 286 286 286 286 285 285 285 285 285 285 285 285 285 285 284 284 284 284 284 284 284 284 283 283 283 283 283 283 283 282
321 322 323 323 324 324 326 324 320 321 325 324 322 324 322 318 317 312 309 309 308 309 310 308 306 305 304 304 303 302 302 301 300 300 298 297 296 296 296 296 295 295 295 295 295 294 294 293 293 292 292 291 291 291 290 290 290 290 289 289 289 288 288 287 287 287 287 286 286 286 285 285 285 285 285 285 285 285 285 285 285 284 284 284 284 284 284 284 283 283 283 283 283 283 283 283 282
321 323 322 322 324 323 322 325 324 324 327 326 323 324 323 323 322 314 309 310 309 308 310 308 306 305 304 304 303 303 302 301 301 300 298 296 296 296 296 295 295 295 295 295 294 294 293 293 292 292 291 291 290 290 290 289 289 289 288 288 288 287 287 287 287 287 286 286 286 285 285 285 285 285 285 285 285 285 285 285 285 285 284 284 284 284 284 284 283 283 283 283 283 283 283 283 282
319 321 321 322 326 325 323 324 326 327 327 326 326 325 323 323 323 318 313 312 310 308 309 308 306 305 304 304 304 303 302 301 301 300 298 296 296 296 295 295 295 294 295 295 294 294 293 292 292 291 291 290 290 290 289 289 289 288 288 287 287 287 287 287 287 286 286 286 286 285 285 285 285 285 285 285 285 285 285 285 285 285 284 284 284 284 284 283 283 283 283 283 283 282 282 282 282
316 317 319 322 323 324 324 323 325 328 327 327 328 328 327 324 322 323 318 312 310 309 308 308 306 305 305 304 304 303 303 301 300 300 299 296 295 295 295 295 294 294 294 294 294 293 292 292 291 291 290 290 289 289 289 288 288 288 287 287 287 287 287 287 286 286 286 286 286 285 285 285 285 285 285 285 285 285 285 285 285 285 284 284 284 284 283 283 283 283 283 282 282 282 282 282 282
316 317 320 321 320 321 323 323 323 325 326 328 327 327 330 323 317 320 319 313 311 309 308 308 306 305 305 304 304 303 303 302 300 300 298 296 295 295 295 294 294 294 294 294 293 292 292 292 291 291 290 289 289 289 288 288 288 287 287 287 287 287 287 287 286 286 286 286 286 286 286 285 285 285 285 285 285 285 284 285 285 284 284 284 284 283 283 283 283 282 282 282 282 282 282 281 281
317 317 318 319 319 320 323 324 323 321 324 327 326 328 331 321 313 315 318 316 313 310 309 309 307 306 305 305 305 304 303 302 301 300 298 296 295 294 294 294 294 293 293 293 293 292 292 291 291 290 290 289 289 288 288 288 287 288 288 288 287 287 287 287 286 286 286 286 286 286 285 285 286 286 285 285 285 284 284 284 284 284 284 283 283 283 283 282 282 282 282 282 281 281 281 281 281
Wind_Speed
9 9 11 10 9 9 6 3 1 2 2 4 4 3 3 2 1 3 5 5 4 4 4 4 4 4 1 1 3 8 9 7 5 3 2 3 5 6 4 8 9 10 12 10 9 15 17 16 14 13 13 13 12 11 11 10 9 8 7 7 9 10 9 9 9 9 9 9 9 9 10 10 10 10 9 9 10 10 11 12 12 13 13 13 14 14 13 12 12 12 11 9 7 7 7 6 6
10 9 9 10 8 5 2 1 1 2 4 5 4 3 2 2 2 6 8 6 5 3 3 3 3 4 1 2 1 5 8 10 8 6 5 8 10 9 5 8 9 9 11 10 9 14 16 15 14 12 13 12 12 11 11 10 9 8 8 8 8 9 8 9 9 9 9 9 9 9 9 9 9 9 8 8 9 10 11 12 12 13 13 13 14 14 14 15 14 14 13 10 7 7 7 6 6
10 8 7 9 6 3 2 1 1 2 4 4 3 1 1 3 6 8 7 7 5 3 1 2 2 3 3 1 3 5 6 9 9 6 6 7 6 9 5 8 10 8 9 9 9 12 13 13 14 12 12 11 11 11 11 10 9 9 9 8 8 9 8 8 8 8 8 8 8 8 9 9 9 9 8 7 8 10 11 12 12 13 13 12 13 14 16 16 16 15 14 12 9 7 7 7 6
9 7 5 7 2 3 2 1 2 2 4 4 4 2 3 6 7 7 7 6 4 3 1 1 2 2 3 5 5 6 5 6 11 8 4 7 6 6 5 10 10 8 10 10 8 11 11 11 14 12 11 10 10 11 10 10 10 9 9 9 9 9 9 8 8 8 7 7 7 8 8 8 8 8 8 7 8 10 11 12 13 13 13 12 13 15 16 16 16 15 14 13 10 9 8 8 7
11 7 5 5 1 1 1 2 1 4 4 2 4 3 6 6 7 7 6 6 3 4 3 3 1 0 5 7 4 3 3 1 11 15 5 6 8 6 8 9 8 7 10 10 8 11 11 9 11 12 10 10 10 10 10 9 9 9 9 9 9 10 10 9 8 8 7 7 7 7 7 7 7 7 7 7 8 10 11 12 13 12 12 12 14 15 16 17 17 16 14 13 12 10 10 9 9
11 9 6 4 1 1 0 2 2 6 4 2 5 4 6 6 7 8 6 6 5 4 3 3 2 3 5 5 5 5 5 2 6 12 7 6 7 8 8 8 7 7 10 9 9 10 11 8 9 12 11 10 10 10 10 9 8 9 9 9 9 10 10 10 9 8 7 7 8 8 7 7 7 7 7 7 8 10 11 11 11 11 12 12 14 15 16 17 18 16 14 13 13 12 11 11 10
8 6 3 3 2 0 2 1 4 5 4 5 6 5 6 6 4 6 7 4 4 4 1 1 3 3 4 3 6 8 11 10 5 6 7 6 7 10 8 7 7 9 10 8 8 8 8 8 8 11 12 10 10 10 10 9 8 8 8 8 8 9 9 9 9 8 7 8 8 8 7 7 7 7 7 7 8 9 10 9 9 10 11 12 14 16 17 18 18 17 14 13 13 12 12 12 12
5 2 1 1 1 1 2 2 6 4 3 6 6 6 6 4 1 2 6 3 3 4 3 3 3 2 3 5 5 6 13 15 10 7 7 8 8 9 11 10 9 10 9 7 7 7 6 7 7 10 13 10 10 10 10 9 8 8 7 8 8 8 8 8 9 8 7 8 8 7 8 8 6 7 7 8 8 9 9 8 8 9 9 11 15 16 17 18 18 17 14 12 12 12 12 12 12
6 2 1 1 1 1 1 4 5 3 5 6 6 5 5 4 2 2 4 5 3 4 5 4 4 1 6 10 7 5 11 12 11 11 10 10 8 7 13 14 11 11 9 5 3 5 4 6 6 9 13 11 10 9 10 9 8 8 7 8 8 7 7 8 8 8 7 7 8 7 7 8 7 7 6 7 8 8 8 8 9 9 8 11 14 15 17 17 17 17 14 12 12 13 12 12 12
3 3 1 1 2 1 1 4 5 4 5 5 6 5 5 2 1 3 3 6 2 3 6 5 5 3 5 9 5 5 9 9 11 12 12 10 7 6 9 14 12 10 9 7 4 3 3 3 4 9 14 12 10 10 9 9 8 8 7 8 8 7 7 7 7 8 8 7 7 6 6 7 6 7 7 7 8 8 7 8 9 10 9 11 13 14 16 16 16 16 15 12 11 12 13 13 12
1 2 1 1 3 2 2 4 5 4 6 5 6 5 3 2 1 1 1 5 2 3 5 4 3 4 1 5 3 7 11 12 13 12 10 9 7 7 6 11 12 10 10 10 7 3 1 1 4 10 15 12 11 10 9 8 9 8 8 8 8 7 6 7 7 7 8 7 7 5 5 6 7 7 7 8 8 8 7 8 9 9 9 10 12 13 14 16 15 16 16 12 10 11 12 12 12
1 2 2 2 4 1 2 4 6 4 6 5 5 3 1 1 1 0 2 3 2 5 7 5 2 3 1 4 3 8 15 16 12 9 8 7 7 6 5 7 9 10 11 11 9 4 2 3 2 13 15 12 12 10 9 8 9 8 8 8 7 7 6 6 7 7 7 7 6 4 4 6 7 7 7 8 8 8 7 8 8 8 9 10 11 13 14 15 15 15 16 14 10 10 11 11 12
1 3 2 3 3 2 3 2 6 5 4 3 5 3 1 2 0 3 3 1 2 5 6 4 2 3 2 5 4 7 13 14 10 7 7 6 6 5 4 4 5 7 10 9 8 6 4 4 1 11 14 12 11 10 10 9 9 8 8 8 7 7 6 6 7 8 8 7 5 3 4 6 7 7 7 8 8 8 7 7 6 6 7 8 10 12 14 15 15 15 16 15 11 9 10 11 11
2 2 1 2 2 2 2 2 5 4 3 4 5 5 2 1 3 4 4 2 5 5 3 2 3 3 2 4 3 4 7 11 9 5 5 6 6 5 5 6 4 7 10 9 7 6 8 5 2 6 9 9 10 10 10 10 9 9 9 9 8 8 6 5 6 8 8 8 6 3 3 4 6 8 7 8 8 8 7 5 4 5 6 7 9 12 14 15 15 15 15 15 13 9 9 10 10
3 2 1 2 1 1 2 2 3 3 3 5 3 4 4 2 2 2 4 4 5 3 3 2 4 2 2 2 2 3 7 10 8 4 5 6 6 7 9 9 9 7 8 8 7 6 8 9 7 4 5 6 8 9 9 10 10 9 9 9 10 9 7 6 5 7 8 8 8 6 3 3 5 7 8 8 9 9 7 3 2 3 5 7 10 13 14 15 14 15 15 15 14 11 8 9 9
2 2 1 1 1 1 1 1 1 1 3 4 2 3 5 3 1 1 3 2 1 2 2 3 3 3 4 4 3 3 7 8 6 4 4 5 6 9 10 8 10 10 8 6 4 3 5 8 8 6 4 5 6 7 7 8 9 9 10 10 10 10 9 8 7 6 7 7 8 7 6 3 3 6 7 8 10 10 8 3 1 1 4 7 10 12 13 13 14 14 15 15 15 13 10 9 9
1 1 0 3 3 2 2 1 2 2 4 4 4 2 3 4 1 1 2 1 2 2 5 5 6 7 5 5 4 6 7 9 9 6 5 5 6 10 9 8 10 10 9 8 5 3 2 3 6 8 6 5 6 6 7 8 9 8 10 11 10 10 10 10 9 7 6 6 7 8 7 5 4 5 7 7 10 11 9 6 4 1 2 5 7 9 10 11 13 14 15 15 15 14 13 10 9
1 1 1 3 1 2 1 2 3 4 5 4 4 1 1 3 2 2 2 2 4 2 8 7 8 10 9 8 7 8 10 12 12 11 10 9 8 10 10 8 9 9 7 7 5 3 3 2 2 6 6 7 7 7 8 9 9 8 8 10 11 11 10 9 9 8 7 7 7 7 7 6 5 6 7 8 10 12 11 8 5 1 1 3 5 7 8 10 11 12 14 15 16 15 15 12 9
0 2 1 1 2 2 3 5 4 1 5 5 4 3 3 1 2 1 1 3 5 2 6 7 8 9 8 10 9 10 12 13 13 13 13 13 12 11 10 8 9 8 5 5 6 3 2 3 3 5 6 8 8 7 8 8 7 7 7 8 10 11 11 10 9 9 8 8 7 7 6 5 7 7 6 8 10 11 11 9 5 0 1 2 3 5 7 10 11 12 13 15 15 13 13 12 11
0 1 2 2 3 3 4 6 5 5 5 3 4 4 1 1 2 1 2 3 2 1 4 5 7 6 6 7 9 10 11 13 13 13 14 13 12 11 10 10 9 8 6 5 3 3 1 3 5 6 6 8 8 7 7 7 5 6 6 8 9 9 11 10 9 9 9 8 7 6 6 5 8 8 7 8 9 10 11 9 5 1 1 2 1 3 6 8 10 12 12 13 12 10 10 10 10
1 1 1 2 2 2 4 5 6 5 5 3 3 3 1 2 3 0 2 4 1 3 4 4 6 5 5 5 7 10 10 12 12 13 13 12 12 10 9 8 8 7 6 5 3 4 4 3 4 8 8 8 9 8 7 6 6 5 5 7 8 8 10 10 9 9 9 9 8 7 6 7 8 7 8 9 8 10 12 11 7 4 2 2 1 3 5 7 9 10 10 10 9 9 10 10 8
1 1 3 4 3 2 4 6 6 4 3 3 1 1 1 2 0 3 3 2 1 3 3 5 6 5 5 5 6 9 9 10 11 11 12 12 11 10 9 8 8 8 7 7 7 7 6 4 3 7 10 10 9 9 8 6 6 6 6 6 7 8 8 10 10 9 9 9 9 9 9 7 5 6 7 8 9 10 13 12 9 6 4 4 3 2 5 9 9 6 6 8 8 9 10 11 10
1 0 3 4 3 2 3 4 4 2 1 1 1 1 2 2 3 3 1 2 3 4 4 5 5 5 6 6 7 7 7 8 10 10 10 10 11 10 10 9 9 9 9 9 9 8 8 6 3 3 8 12 10 10 8 6 7 6 5 6 6 6 6 7 8 8 8 7 7 9 9 8 7 7 7 7 10 11 11 11 9 8 8 6 5 3 6 10 7 3 5 7 9 9 10 11 11
1 1 3 4 4 2 3 4 3 1 2 2 1 2 2 3 3 2 3 6 6 6 6 6 7 7 7 6 7 7 7 8 8 9 9 9 10 10 10 10 10 10 10 11 11 9 10 7 6 6 5 12 11 10 8 5 7 6 6 7 7 8 8 8 7 7 7 7 7 7 6 6 7 8 7 7 10 10 10 9 9 10 9 8 8 7 9 10 5 3 6 6 8 8 8 8 8
1 2 3 3 2 1 3 4 4 3 3 3 1 1 5 5 2 0 5 8 6 6 6 6 7 6 6 5 5 6 7 8 8 8 9 9 9 10 10 10 10 11 12 12 12 10 11 8 8 8 3 11 10 9 8 7 8 9 8 8 9 9 9 9 8 7 6 6 5 5 5 5 5 6 6 7 8 9 9 9 10 10 9 9 9 9 10 8 6 7 7 6 5 5 7 6 6
1 4 3 1 2 3 4 5 5 5 4 3 2 4 7 4 2 2 6 9 7 7 6 5 5 5 5 4 5 6 6 7 8 8 8 8 10 11 12 12 11 12 12 12 13 12 11 7 5 5 3 7 7 9 10 9 11 11 10 9 11 10 9 10 9 8 7 6 6 5 5 4 4 4 4 5 6 8 9 9 9 9 9 9 8 9 9 9 9 8 8 7 5 4 7 7 5
2 4 4 4 5 5 4 5 6 5 5 5 5 6 5 2 2 2 5 8 7 7 6 5 5 5 5 4 4 6 7 7 8 9 9 10 11 12 12 12 12 12 12 13 15 13 10 6 3 6 4 4 6 11 11 11 12 12 11 11 12 12 11 11 10 10 8 8 8 6 4 3 3 3 4 5 6 7 8 8 8 9 9 9 10 10 10 10 9 8 9 7 4 3 6 8 5
1 2 5 6 7 7 6 6 6 4 3 5 6 6 2 4 1 3 7 8 7 8 7 6 5 5 5 5 4 5 7 7 8 10 10 10 10 11 12 13 12 12 12 14 15 11 7 5 4 7 6 5 8 13 12 13 13 13 14 14 14 14 12 11 11 11 10 9 8 6 5 4 2 3 4 5 6 7 8 9 10 10 10 10 10 10 10 9 8 7 7 5 4 3 4 7 6
1 1 4 6 6 7 9 8 5 4 2 4 4 3 5 5 3 5 9 7 7 7 7 6 5 5 5 4 4 4 6 7 9 10 9 8 9 10 11 11 11 11 11 12 13 9 6 6 6 7 7 9 11 13 14 16 16 16 17 17 17 16 14 13 13 12 10 8 7 6 6 7 7 6 4 3 4 7 10 10 10 9 9 9 10 11 10 8 7 6 4 3 4 4 4 5 6
2 3 3 4 5 5 7 7 5 4 3 4 5 1 5 6 6 7 8 7 8 7 6 6 5 5 4 4 4 4 5 7 9 9 8 8 8 9 9 9 8 9 10 11 13 10 8 10 10 10 10 12 14 15 17 20 19 19 19 19 19 18 17 16 15 14 12 11 8 8 8 9 9 9 8 5 4 6 8 9 9 9 10 11 12 13 12 11 10 8 6 4 5 5 5 6 6
2 3 2 2 2 2 1 5 7 5 2 4 5 2 4 4 7 7 7 7 8 7 7 6 5 5 4 4 5 4 5 7 9 8 8 8 7 7 7 6 7 8 10 12 12 10 11 13 13 13 14 14 16 19 22 22 21 20 21 21 20 19 17 17 17 15 14 13 12 11 11 11 11 11 10 8 7 7 7 9 10 10 11 12 13 13 13 11 9 9 8 6 5 5 6 6 6
3 2 2 2 3 3 2 4 7 5 1 4 5 2 2 4 6 6 7 7 8 7 7 7 6 6 5 5 5 5 5 7 9 8 7 7 7 6 5 5 6 8 10 11 11 10 13 16 16 18 18 18 19 22 24 24 21 22 23 22 21 20 18 18 18 15 14 14 13 14 13 12 13 13 13 12 12 12 12 14 14 12 12 12 13 12 11 10 8 8 8 7 7 6 6 5 4
3 3 3 3 3 3 3 3 5 3 3 5 6 3 1 3 6 7 7 8 8 6 7 8 6 6 6 5 5 5 5 6 8 8 7 6 6 5 5 6 7 9 10 11 12 12 15 18 18 21 21 22 22 22 24 25 23 23 24 23 22 22 22 21 20 18 17 17 17 17 16 15 15 16 17 17 17 17 16 17 17 15 15 15 14 14 14 14 12 12 12 10 9 8 8 7 6
3 4 3 5 5 4 2 1 3 4 4 5 7 6 5 3 8 8 8 9 9 7 7 8 7 6 5 5 5 5 6 5 6 8 7 6 6 5 6 7 8 9 10 12 13 13 16 18 19 22 23 24 24 23 25 27 26 26 26 25 26 26 26 26 24 23 22 22 22 22 21 20 19 19 20 20 21 21 20 20 19 18 17 17 17 18 19 18 16 16 16 16 15 13 14 13 10
4 2 2 3 4 5 4 1 3 6 4 5 6 7 8 5 8 8 8 9 9 8 7 7 7 6 6 5 5 5 6 5 6 7 6 6 6 5 6 7 9 10 11 12 14 14 16 19 20 21 23 24 25 26 27 28 28 29 30 30 30 30 30 29 28 28 27 27 26 26 25 25 24 23 22 23 24 23 23 22 21 19 18 18 18 19 20 20 19 18 18 20 21 21 21 16 11
6 3 1 3 3 4 3 2 4 5 3 6 6 6 8 5 7 8 8 8 8 7 6 7 6 6 6 5 5 5 6 5 7 8 6 7 6 6 7 7 9 12 11 13 16 16 17 19 19 20 22 22 24 25 27 28 29 30 30 31 31 30 29 29 29 29 28 27 27 26 26 26 26 25 25 24 24 24 24 23 22 21 19 18 19 20 20 19 18 18 19 22 24 26 27 21 13
6 3 2 5 4 5 4 1 3 1 1 6 6 6 8 7 6 9 9 7 7 7 6 7 6 7 6 6 6 6 6 6 8 8 7 8 7 7 8 8 10 12 12 14 16 18 17 18 19 19 20 20 21 22 23 25 25 26 28 29 29 27 27 28 28 27 26 25 25 25 25 25 24 24 24 25 25 26 26 26 25 25 23 22 23 22 20 19 18 18 18 20 23 26 29 28 21
7 3 4 5 3 5 5 2 3 2 1 4 6 7 9 9 8 7 10 8 9 10 9 9 8 7 6 6 7 6 6 6 8 9 8 8 8 8 9 8 10 12 12 13 14 15 16 17 18 17 18 18 19 20 21 22 22 24 27 27 28 27 27 28 28 27 26 26 25 25 25 24 24 24 24 25 26 27 28 29 29 28 28 27 26 24 22 21 20 19 18 18 20 21 25 29 27
5 3 3 4 3 5 4 2 3 2 1 3 5 7 7 8 8 5 11 11 9 8 8 8 8 8 6 6 7 6 7 6 6 8 9 9 9 8 9 8 10 11 13 13 12 12 14 15 16 16 17 17 18 19 21 23 23 25 27 28 29 29 28 28 29 28 27 28 28 27 27 27 27 27 27 27 28 29 29 30 30 29 29 29 28 27 25 24 22 20 19 19 18 18 21 26 29
3 3 3 4 4 4 3 1 3 3 3 4 4 6 7 7 10 8 8 6 2 2 3 4 4 6 7 7 7 7 8 7 7 7 9 11 10 9 9 9 10 11 11 11 11 11 12 13 14 15 16 17 19 20 23 25 26 27 29 29 30 31 30 29 30 30 30 30 31 30 30 30 30 30 29 29 29 29 29 29 28 28 28 28 27 28 27 26 24 22 20 20 20 20 21 23 25
5 6 6 5 4 6 6 3 3 3 4 4 3 6 7 7 12 10 2 4 3 4 4 4 3 3 5 6 7 7 7 8 8 7 8 11 11 10 9 9 11 11 11 11 11 12 13 13 14 15 17 19 21 23 26 27 29 30 31 30 30 30 30 29 31 30 30 32 31 31 30 30 30 30 29 29 28 28 28 28 27 27 27 27 27 27 26 25 24 23 21 20 21 21 20 21 21
5 7 9 9 7 7 6 1 2 1 3 2 2 3 4 4 9 8 4 3 4 5 5 5 4 3 5 5 6 6 6 7 7 8 10 12 13 12 10 10 11 11 11 11 11 12 14 15 17 19 20 21 22 25 26 26 27 27 27 27 28 29 28 27 28 29 30 31 30 29 29 28 28 28 28 27 27 26 26 26 26 26 26 25 25 25 24 23 23 22 22 21 20 20 19 21 21
4 4 5 9 8 5 4 3 2 1 3 1 3 2 5 4 4 4 5 6 6 6 6 7 7 6 5 6 5 5 5 6 7 8 10 12 14 14 12 11 11 12 11 12 12 13 15 17 18 21 22 22 21 20 19 19 21 22 24 27 28 29 29 26 26 28 29 29 29 28 28 27 27 27 27 26 25 25 25 25 24 24 24 24 23 23 23 22 22 21 20 21 20 19 19 20 20
4 4 3 3 4 2 1 2 2 3 3 2 4 3 5 7 6 6 7 7 7 7 7 7 8 8 7 7 7 7 6 6 6 7 8 11 14 14 13 12 12 12 12 12 13 14 15 17 18 20 21 20 18 14 14 15 19 23 27 29 28 29 30 28 27 28 28 28 28 28 27 26 26 26 25 25 24 24 23 23 23 23 23 22 22 22 22 21 20 20 19 19 20 20 19 18 17
2 1 4 5 3 1 0 1 3 3 4 4 5 4 4 7 5 6 8 7 8 9 10 10 9 9 8 8 7 8 7 7 6 6 8 11 14 15 15 14 13 13 13 13 15 15 16 17 18 19 19 18 15 14 14 17 21 26 29 30 30 29 29 28 27 26 26 27 27 26 26 26 25 25 24 23 23 22 22 21 21 21 21 21 21 21 20 19 19 19 19 19 19 20 19 17 16
3 3 6 6 3 2 1 2 1 1 4 5 5 5 4 6 4 6 6 6 9 9 8 9 10 9 8 8 8 8 7 7 6 7 10 12 14 15 16 16 15 14 14 14 16 16 17 17 18 18 17 16 15 16 18 21 24 28 29 31 31 29 27 27 25 25 24 25 26 25 25 24 24 23 23 22 22 21 21 20 20 20 20 19 19 19 19 19 19 19 19 19 19 19 19 18 16
6 4 5 4 2 3 2 1 2 0 6 6 8 9 6 5 3 5 5 4 6 6 6 7 9 10 9 8 8 8 7 7 7 8 11 14 15 16 16 16 16 16 15 16 17 17 18 18 19 19 18 18 19 20 23 25 27 28 29 29 30 29 27 26 25 24 23 24 24 24 23 23 22 22 21 20 20 19 19 19 19 19 18 18 18 17 18 18 18 18 18 17 17 17 17 17 16
5 4 4 3 1 3 2 1 2 2 7 4 8 11 10 8 4 2 2 2 1 5 8 10 11 11 10 8 8 8 7 7 8 7 10 14 15 15 16 16 17 17 16 17 18 18 19 19 21 21 20 21 22 24 26 27 27 28 28 28 28 28 27 26 26 24 22 22 23 22 22 22 21 20 19 19 19 17 17 17 16 16 16 16 16 16 15 15 16 15 15 15 15 15 15 15 15
3 5 5 4 1 0 1 2 3 5 6 3 2 5 8 8 6 5 6 2 3 2 6 12 13 12 11 10 9 8 7 7 8 7 8 10 13 15 17 17 17 17 18 19 19 19 20 20 22 23 22 23 24 25 27 27 27 27 27 27 26 26 26 25 25 23 21 21 22 21 21 20 20 19 18 18 17 16 15 15 14 14 14 14 14 14 14 13 14 14 14 14 14 13 13 13 14
6 6 6 5 4 3 4 4 3 5 5 3 2 2 2 4 5 8 6 5 3 3 3 10 12 12 11 10 10 8 9 8 7 8 7 8 12 15 17 18 18 18 18 19 19 20 20 21 22 23 23 23 25 26 26 27 26 26 26 26 26 26 25 24 23 23 22 21 21 21 20 19 19 18 17 17 16 14 14 14 14 14 14 13 13 13 12 12 13 13 13 14 13 13 12 12 12
8 6 6 6 5 4 4 4 3 3 1 3 3 2 3 3 2 2 2 5 4 5 5 9 9 10 10 9 9 9 9 8 7 8 8 10 15 17 18 19 19 19 20 20 20 21 21 22 23 25 25 24 25 26 26 26 26 25 25 26 25 26 25 24 23 23 23 22 21 21 20 18 18 17 16 16 15 14 14 13 13 12 12 12 12 12 12 12 12 13 12 13 13 12 12 12 11
5 4 5 6 4 3 2 1 2 1 1 2 2 3 4 3 0 2 4 5 4 4 5 10 8 9 10 8 9 9 8 8 8 8 8 12 17 18 18 19 19 20 20 21 21 22 23 24 25 26 26 26 26 27 27 27 26 26 25 25 25 25 24 24 24 23 23 22 21 20 19 18 17 17 16 15 14 13 12 12 11 11 11 11 12 12 11 11 12 12 12 13 12 11 11 11 10
3 4 6 4 2 3 3 1 2 2 3 3 4 4 4 1 1 2 5 4 3 0 3 9 9 9 10 8 8 9 8 8 8 8 8 12 17 18 19 20 21 22 21 21 22 22 24 26 26 27 27 27 27 27 27 27 27 26 25 25 24 24 25 25 24 23 22 21 20 20 19 18 17 16 15 14 12 11 11 10 10 11 11 11 11 11 11 11 11 11 11 11 11 10 10 9 9
4 5 6 3 4 1 1 1 1 2 5 4 5 6 4 3 3 2 5 5 5 5 5 7 8 10 10 8 8 9 9 8 8 8 9 13 17 18 19 20 20 22 22 22 22 23 25 26 27 28 28 28 28 27 27 27 27 27 26 25 25 25 25 24 24 23 22 21 20 19 18 17 16 15 13 12 11 10 10 9 9 9 9 9 9 9 9 9 9 9 9 9 9 8 8 7 8
3 2 3 3 1 2 3 3 2 4 5 4 4 7 6 7 6 4 7 10 10 9 8 8 10 11 10 9 9 9 9 9 8 9 8 11 16 17 19 20 20 21 21 21 22 23 25 25 27 28 28 28 28 27 27 27 27 27 26 26 25 25 25 24 23 22 21 20 19 18 17 16 15 13 12 11 10 9 8 7 7 7 7 7 7 7 6 6 5 5 6 6 6 6 7 7 7
2 1 2 1 2 3 4 3 2 3 4 4 3 4 5 6 7 9 12 13 12 12 11 11 11 11 10 9 10 10 10 10 9 9 8 11 16 18 19 20 20 21 21 22 23 23 24 25 26 27 27 27 27 27 28 27 27 27 27 26 25 25 24 23 23 22 20 19 18 17 16 14 13 12 10 9 8 7 6 5 5 4 4 4 3 3 3 3 3 4 4 4 5 5 6 7 7
4 3 4 4 2 1 1 2 2 3 3 3 3 4 5 4 2 8 12 12 13 15 14 12 11 11 10 10 10 11 11 10 10 9 8 12 17 19 20 20 21 22 22 22 24 24 24 25 26 27 27 27 27 26 27 28 27 27 27 26 26 25 24 23 22 20 19 18 17 15 14 13 12 11 9 8 6 5 4 3 3 2 2 2 2 2 2 3 3 3 4 4 4 5 6 7 7
9 8 8 9 7 4 2 3 4 3 2 3 4 5 6 3 2 0 5 7 11 14 13 11 11 11 11 10 11 12 11 11 11 10 9 13 18 20 21 22 22 23 23 24 25 25 25 26 26 27 28 28 28 27 28 28 28 28 27 27 26 25 24 22 21 19 18 17 15 14 13 12 11 10 8 7 6 5 4 3 3 2 2 2 2 2 2 3 3 3 4 4 5 5 6 6 7
Wind_Direction
340 336 325 319 315 315 301 253 274 243 160 75 84 101 63 67 134 80 75 81 75 51 28 39 30 347 2 334 15 60 50 41 50 47 97 134 97 87 76 81 109 131 139 151 152 170 165 154 158 154 154 153 151 147 141 135 127 121 111 109 107 111 113 115 114 111 108 105 104 102 100 101 100 97 95 95 95 93 91 90 88 83 78 71 57 52 47 39 37 33 30 28 31 34 37 39 40
342 334 318 308 291 302 303 152 291 233 110 76 68 85 146 122 67 57 57 61 67 59 48 40 23 337 305 215 294 76 53 44 74 89 99 126 96 47 49 87 106 131 139 150 148 165 168 159 159 159 158 156 155 151 144 138 130 125 115 110 111 115 118 119 117 114 114 110 109 107 107 107 106 101 97 97 94 90 87 87 86 78 71 63 54 48 39 33 32 31 30 31 40 45 48 50 49
338 334 326 314 267 221 285 140 243 258 104 98 81 88 204 83 67 63 60 62 61 56 101 116 86 318 296 146 70 80 60 39 57 94 96 95 72 14 25 100 105 127 140 144 144 160 170 166 163 162 163 159 156 155 147 142 135 131 124 118 122 123 125 125 120 120 117 113 113 111 111 113 113 106 101 99 93 91 85 82 80 73 67 59 51 44 37 33 30 28 30 34 45 54 58 59 58
339 343 323 317 270 192 279 207 241 335 72 104 95 68 62 74 78 74 71 72 50 11 356 84 92 318 12 40 37 71 58 38 42 48 90 55 29 4 56 100 100 123 146 143 135 152 170 176 171 166 164 163 160 159 153 147 141 137 130 125 131 135 134 131 127 126 119 117 117 112 112 114 113 108 106 103 94 90 84 81 77 71 65 55 48 42 37 33 31 30 32 36 43 52 60 61 60
333 332 285 290 310 233 294 266 300 50 30 76 106 85 80 83 88 88 86 89 62 20 3 357 61 123 58 35 10 53 347 346 51 38 54 33 31 58 69 87 93 122 147 141 134 155 171 178 178 173 168 168 166 164 160 152 146 141 135 128 134 142 142 138 135 133 130 129 126 119 115 117 115 108 108 106 98 91 88 86 81 75 69 59 51 45 38 33 32 31 34 39 43 49 54 55 56
320 310 262 246 257 359 319 288 58 83 356 19 109 92 84 86 91 100 103 102 89 58 5 341 20 69 83 60 53 62 357 340 53 33 26 13 50 82 62 64 91 131 141 137 148 164 173 175 178 180 177 173 171 171 165 160 152 143 139 133 131 143 148 145 143 140 140 139 133 128 124 124 122 115 114 111 103 98 97 93 85 79 74 65 54 46 40 34 31 31 37 44 45 49 51 52 53
313 307 235 234 263 56 267 290 72 83 358 25 98 100 88 91 113 129 120 114 110 97 54 27 10 46 116 132 80 60 42 49 62 34 19 33 79 90 71 72 103 127 132 137 157 162 169 173 173 184 187 181 176 175 170 166 158 149 144 137 129 140 151 150 147 145 143 145 140 137 136 132 130 126 124 118 112 108 102 94 84 76 68 59 48 42 37 33 30 30 37 48 51 51 52 52 52
283 295 136 299 288 204 285 51 65 75 62 45 67 83 91 86 18 121 105 94 107 101 72 72 10 9 125 105 93 66 59 64 68 55 41 68 85 90 91 92 104 117 133 146 155 147 153 168 171 188 193 188 183 182 177 173 165 157 150 143 133 134 152 154 148 147 144 147 149 150 146 139 141 137 131 126 122 114 104 95 84 75 60 48 42 37 32 30 31 30 36 48 55 56 55 54 54
240 224 42 340 267 225 329 88 86 92 102 85 83 82 89 82 352 12 98 109 86 75 59 17 340 9 110 89 96 81 62 62 61 54 48 72 86 95 102 102 104 110 127 133 158 162 151 167 177 194 198 194 188 190 186 179 173 166 158 150 141 135 152 157 150 150 147 149 158 163 158 149 147 140 132 128 124 115 109 99 88 84 67 49 42 35 29 29 31 31 36 48 56 57 57 55 55
242 193 13 328 278 209 203 112 107 104 96 89 103 102 98 92 9 6 66 106 71 83 71 345 330 12 106 98 95 78 60 52 54 50 42 53 80 103 111 113 113 110 124 120 124 170 159 185 215 202 197 195 191 195 194 188 182 175 166 158 151 141 148 157 156 158 157 160 171 181 172 161 152 140 136 132 125 118 114 102 92 89 70 51 44 35 29 29 31 31 33 45 56 56 56 54 54
294 195 103 331 275 200 188 113 110 114 108 96 93 94 92 68 37 10 62 100 80 106 71 345 356 357 39 98 93 93 66 48 46 44 43 34 62 102 114 121 124 124 137 133 111 82 122 245 248 203 194 192 193 198 199 195 190 182 172 167 160 147 143 152 159 167 172 175 183 193 179 169 159 146 145 142 132 124 118 104 95 87 66 51 43 34 30 29 30 31 30 38 53 57 56 54 53
346 287 81 272 277 61 25 102 113 107 120 129 115 94 61 101 216 268 99 105 122 110 63 9 18 330 336 107 124 94 53 35 34 38 56 42 51 83 109 124 132 136 147 148 128 100 80 360 260 194 191 193 193 196 203 201 196 192 183 178 168 156 147 144 155 173 184 187 190 189 170 170 165 154 152 147 137 130 123 107 95 79 59 47 38 31 29 30 31 31 29 33 44 55 55 54 53
7 337 16 273 290 36 8 69 104 112 143 140 113 115 253 182 83 13 15 42 114 101 64 13 350 330 24 110 122 80 41 20 16 30 58 69 68 65 79 107 133 140 140 142 133 126 126 34 328 193 193 199 198 198 204 207 204 203 197 190 179 167 158 143 150 174 192 197 198 190 164 169 167 157 156 153 142 136 131 116 89 62 46 34 29 29 30 31 31 32 30 30 36 50 54 55 54
335 7 357 283 318 26 35 77 119 144 153 103 105 139 180 52 44 9 342 20 64 74 84 1 3 13 33 114 106 48 20 3 2 32 64 82 92 73 60 67 82 120 124 128 134 140 147 124 100 196 205 212 217 217 213 214 212 210 206 200 191 176 164 149 149 173 195 205 206 206 169 170 174 160 161 163 148 141 141 126 79 49 37 28 28 29 30 32 33 34 33 30 31 41 53 56 55
350 2 289 291 343 21 49 74 145 177 140 115 129 150 132 53 39 11 11 46 65 85 122 45 14 5 7 78 85 7 356 354 2 46 86 92 90 74 67 61 57 80 111 128 143 148 159 152 137 167 213 225 232 233 229 230 224 216 213 208 201 184 167 158 159 175 192 207 210 213 196 178 185 172 178 178 155 148 151 138 55 31 33 29 28 28 30 34 38 39 38 34 33 36 46 56 58
1 350 316 296 194 155 198 44 90 151 114 118 145 156 141 114 48 30 50 43 97 136 110 49 36 28 33 59 71 19 2 6 26 63 100 109 105 88 80 73 62 63 76 86 110 131 158 162 154 158 188 220 228 228 231 245 242 228 219 214 209 195 180 170 169 181 192 206 211 214 213 199 192 185 193 188 164 159 160 169 247 351 35 27 27 32 35 40 43 44 43 40 39 41 44 50 56
357 16 307 259 196 136 206 154 97 127 112 126 149 177 159 137 143 93 97 314 253 128 86 65 60 59 62 75 66 45 34 35 51 70 79 86 117 108 90 81 76 70 70 73 71 67 96 150 165 161 170 203 219 223 223 240 249 244 231 220 212 205 197 184 174 180 190 205 213 216 218 219 220 201 201 195 180 174 170 182 212 191 57 33 34 40 44 47 45 46 47 45 43 43 43 44 50
343 293 234 268 163 103 305 63 97 146 131 133 134 35 4 132 144 94 92 216 229 159 95 86 73 80 86 80 63 52 50 48 54 62 57 50 64 80 73 67 69 69 71 70 58 71 98 85 166 173 181 195 203 214 217 232 245 251 246 227 215 211 205 196 187 186 190 200 211 218 220 226 227 212 203 195 189 184 178 188 205 196 80 49 45 52 56 51 44 44 44 44 44 39 37 36 38
299 298 291 323 46 49 348 55 65 52 106 121 115 63 12 85 103 96 249 216 213 180 115 116 99 97 89 70 57 54 53 52 54 57 54 47 45 50 52 50 51 48 48 51 33 32 130 141 169 185 194 195 191 203 214 223 243 255 247 225 217 215 208 203 199 197 199 199 208 219 216 214 219 215 202 191 192 187 182 188 198 269 70 68 46 62 62 52 45 42 36 39 45 40 36 33 30
98 359 336 42 70 72 30 60 68 24 51 105 109 83 23 111 95 133 283 298 263 101 94 121 112 97 82 69 55 54 55 55 54 54 55 49 46 45 39 40 36 25 24 36 22 360 318 206 188 178 181 200 193 190 209 212 229 256 242 219 217 214 211 208 204 203 206 205 204 209 201 205 217 216 200 187 190 187 187 189 191 229 123 92 47 72 66 56 50 46 42 41 43 38 39 38 33
356 23 34 63 27 77 67 62 69 42 24 21 65 60 303 110 83 244 281 310 339 79 46 61 88 78 72 74 60 57 56 55 52 50 53 48 45 43 36 37 29 17 21 12 338 334 316 278 223 194 176 189 194 182 193 204 210 230 226 220 219 211 206 203 203 205 207 210 208 196 193 211 219 215 203 189 190 191 190 192 194 205 193 172 159 86 74 69 61 54 50 44 38 32 35 39 36
328 39 84 72 351 40 94 71 60 49 37 19 28 359 330 65 30 230 226 265 126 87 61 67 78 78 69 66 68 64 56 54 51 47 48 46 42 36 31 30 24 15 17 8 351 347 334 318 269 222 189 177 187 179 176 198 206 205 211 215 216 213 209 201 200 204 208 211 208 199 197 211 206 196 205 192 192 197 192 196 200 202 207 191 160 106 89 90 85 70 45 34 33 28 29 33 32
337 29 82 59 13 38 94 83 62 25 12 270 270 340 14 1 294 256 172 101 111 95 83 87 84 87 85 75 71 66 59 57 54 51 48 46 42 35 27 21 19 14 12 8 357 357 350 335 335 276 202 174 172 180 173 194 204 191 197 201 202 205 200 192 190 199 207 204 200 202 205 212 198 185 204 193 187 195 196 201 203 204 201 177 160 160 126 118 121 85 39 33 36 32 30 34 27
254 254 106 59 9 11 77 98 107 353 286 268 41 12 308 279 286 288 105 104 113 109 95 98 98 94 91 79 74 73 67 60 59 61 57 50 45 38 30 23 20 15 13 9 1 360 352 349 26 5 229 172 160 182 175 176 192 179 180 181 173 175 172 162 166 180 186 183 190 199 198 209 207 199 208 201 190 195 201 200 200 207 197 175 171 172 156 149 153 99 73 62 53 41 40 42 20
252 350 89 69 349 300 112 124 158 197 250 274 20 317 264 248 248 59 126 122 119 119 111 112 112 100 89 78 78 80 71 60 55 62 61 52 45 41 34 27 22 18 14 8 4 1 355 7 29 6 235 163 150 176 180 178 185 176 173 168 156 161 162 148 152 157 140 144 169 178 172 180 201 207 210 212 206 201 203 201 199 200 188 184 182 171 169 157 137 116 97 85 76 50 53 60 12
354 14 9 9 248 237 170 168 196 198 211 222 221 245 252 235 109 74 125 127 126 127 127 130 125 108 97 87 78 76 74 62 50 53 58 53 42 38 34 27 24 18 14 12 8 2 359 7 19 24 140 166 168 186 191 181 174 168 155 144 141 142 138 132 140 146 135 132 130 135 163 182 196 199 188 196 203 189 188 193 196 193 186 187 175 156 153 141 137 133 107 99 99 57 58 67 25
338 8 327 289 265 256 190 200 225 204 198 183 195 251 252 126 116 214 130 129 138 132 137 147 131 114 108 99 84 76 74 61 51 52 46 43 37 32 30 24 24 19 17 20 11 3 3 5 28 63 116 198 187 173 169 158 157 155 139 128 128 126 124 123 123 126 125 123 116 112 128 159 189 179 158 169 183 174 169 174 183 187 176 165 157 149 147 147 151 141 121 119 113 70 56 56 50
356 3 296 272 253 247 213 222 232 201 197 177 191 256 246 105 187 203 135 141 151 139 144 153 136 118 115 107 97 80 76 67 59 57 44 39 33 29 29 20 20 23 24 21 10 5 15 24 47 64 96 147 144 143 140 135 136 133 126 120 117 115 116 115 110 111 111 111 110 105 97 85 99 128 146 164 174 168 166 169 170 167 155 151 155 154 155 155 147 133 130 132 105 81 57 49 49
330 287 277 285 264 244 218 208 204 184 185 165 164 267 238 192 191 132 131 153 157 145 147 149 139 126 124 114 104 84 81 78 69 63 53 48 37 32 30 19 20 26 29 25 18 21 48 64 76 76 99 124 127 129 127 123 120 119 119 115 115 112 111 108 99 96 96 100 101 96 83 68 63 72 98 129 151 152 154 160 162 157 153 158 157 150 146 135 120 112 109 101 90 72 30 35 38
280 238 222 291 293 263 210 176 149 150 160 164 145 289 250 192 150 126 139 161 159 153 152 152 146 135 136 128 117 99 83 78 76 69 58 54 43 36 29 22 30 34 39 41 36 44 75 89 94 96 107 116 120 122 121 120 117 116 115 114 116 114 112 107 99 95 92 91 90 86 81 76 71 68 74 85 101 119 133 139 143 143 143 151 150 139 129 119 114 109 97 81 78 62 32 31 30
259 267 201 215 276 282 193 137 141 151 183 175 155 258 266 146 136 149 157 166 166 163 159 159 153 145 145 138 134 118 96 86 84 77 67 61 49 40 30 30 47 52 56 57 51 60 88 100 104 108 111 115 120 121 117 116 117 116 113 111 111 110 110 106 102 99 94 91 88 87 87 87 87 84 83 86 92 96 105 107 109 119 126 133 133 125 122 120 121 117 107 91 73 66 59 50 38
203 235 264 224 196 215 170 149 168 165 246 196 174 245 246 144 153 161 162 174 181 176 162 160 159 155 154 152 149 130 116 109 95 85 79 71 57 47 39 49 66 67 68 68 64 75 94 102 108 113 117 120 121 120 116 115 118 117 113 110 107 107 107 103 100 98 94 92 92 95 97 98 100 102 101 99 99 98 98 96 95 104 111 112 113 114 114 107 103 101 97 87 67 55 52 45 37
202 184 251 253 214 211 156 179 212 159 135 192 201 250 289 147 164 165 172 183 191 190 166 161 165 159 157 157 150 136 134 128 106 91 85 77 65 55 54 69 81 78 79 82 78 86 98 102 110 113 115 119 119 119 117 116 118 116 113 111 109 108 105 102 102 103 102 100 100 101 101 103 105 106 106 105 104 101 99 97 95 97 99 101 100 95 89 82 78 77 70 61 52 45 32 16 5
231 187 213 246 239 234 191 207 242 183 179 211 208 236 265 178 163 173 186 186 191 198 176 163 163 158 155 150 151 153 147 132 108 97 90 85 73 66 74 80 88 87 89 94 90 93 98 99 104 109 112 115 117 119 118 116 117 114 110 109 107 104 100 98 101 102 100 100 99 99 100 101 101 102 102 102 100 96 94 93 91 91 93 96 94 87 79 72 68 66 60 52 48 45 33 19 10
262 224 204 257 259 249 240 170 181 183 206 242 210 223 248 201 166 181 194 191 196 202 180 160 159 159 157 155 159 153 136 115 104 102 96 92 83 80 85 84 91 91 93 101 99 99 101 98 98 102 106 107 110 115 115 113 112 109 107 105 102 99 97 97 98 97 95 95 95 95 97 97 96 97 97 97 95 92 90 87 86 85 87 90 89 86 79 71 67 65 61 55 53 51 41 31 24
284 308 286 294 306 279 280 103 166 179 192 237 229 234 252 223 177 182 194 194 203 208 171 155 162 159 161 163 159 147 128 111 107 107 100 94 89 91 90 88 97 95 98 106 102 101 101 99 97 96 100 102 104 107 108 108 107 104 103 101 98 95 96 97 96 95 94 93 93 94 95 95 94 92 91 91 90 88 86 83 82 81 82 85 84 81 77 73 71 66 59 52 50 50 43 39 36
280 310 292 282 286 276 281 143 166 147 167 229 238 249 260 258 213 187 185 188 204 210 172 164 173 163 168 164 154 145 123 115 118 115 106 97 93 97 92 94 104 101 105 108 101 101 100 99 98 96 101 105 106 107 107 107 106 104 101 98 96 93 94 96 94 94 95 93 93 94 94 93 94 91 88 88 86 85 83 81 81 79 78 80 80 79 79 77 77 72 63 48 41 43 39 35 36
258 266 276 276 263 265 271 177 155 78 61 245 256 264 261 263 253 186 164 181 205 206 185 180 179 165 166 158 151 136 114 125 134 124 115 106 98 102 97 97 106 104 110 109 99 101 104 103 104 104 109 112 112 114 114 111 109 108 106 102 100 97 94 95 94 93 95 95 95 95 94 94 94 94 92 92 90 87 85 83 80 79 78 79 79 79 80 79 75 72 68 55 43 42 39 33 35
242 241 265 267 260 273 280 127 142 116 99 257 267 275 266 265 271 209 174 190 206 202 184 175 171 164 164 156 150 137 128 143 143 129 126 118 107 108 102 101 108 108 111 110 98 101 108 107 109 113 117 117 117 119 117 113 111 111 110 106 105 101 96 95 96 95 96 96 94 94 94 95 94 94 94 93 92 90 88 86 82 81 79 77 78 76 76 75 71 69 67 64 55 51 47 38 38
234 229 242 248 245 259 268 158 180 182 209 265 296 291 270 266 269 240 189 177 144 92 98 107 136 154 160 157 150 146 148 152 146 138 134 128 121 114 107 107 114 113 112 111 102 102 108 110 113 120 120 119 120 119 117 115 113 111 108 104 103 101 98 99 99 96 97 96 94 94 93 94 94 93 93 91 91 89 88 86 84 82 79 77 76 73 72 71 70 70 66 65 60 53 51 45 43
229 219 220 240 235 227 238 215 175 193 227 238 285 295 267 239 242 237 156 85 99 106 98 82 73 105 118 130 142 152 155 153 148 144 140 137 129 119 117 122 123 120 115 113 109 108 113 115 116 119 118 117 119 118 117 117 114 110 106 103 101 101 99 99 98 94 95 96 94 93 93 94 95 93 92 90 89 87 85 84 82 81 79 77 76 74 74 72 70 70 66 65 62 56 54 52 48
245 220 212 220 234 244 259 288 80 354 291 215 161 284 272 229 229 220 151 154 180 159 164 169 161 128 119 134 145 147 147 147 146 144 144 141 132 126 127 131 129 126 123 119 116 118 120 120 118 117 114 113 115 115 114 115 114 112 110 110 107 104 98 95 96 96 96 97 96 96 95 95 94 92 90 88 86 85 84 83 82 81 79 77 77 76 74 72 69 69 65 64 65 61 58 56 50
253 257 221 208 223 258 292 338 33 269 281 260 142 211 271 293 273 226 170 194 197 175 194 194 178 170 168 171 163 149 146 145 141 140 142 139 136 135 134 137 136 132 129 124 123 125 126 126 125 123 120 118 118 118 120 120 121 121 120 116 112 109 105 100 102 102 102 102 101 101 98 95 94 92 90 88 87 86 85 84 83 82 81 79 78 76 75 72 69 68 67 65 64 61 60 58 50
237 299 353 154 189 250 272 300 254 239 304 280 169 172 271 281 258 217 177 187 203 193 203 203 184 181 182 181 169 161 162 151 142 143 144 143 143 141 136 139 140 137 133 129 128 129 130 132 132 130 128 128 130 136 140 136 133 131 125 118 113 111 111 109 108 106 105 106 103 102 99 98 96 93 92 91 89 88 86 86 84 83 82 81 78 76 75 74 71 69 67 66 66 62 61 64 58
226 328 47 82 92 55 63 238 244 277 324 263 186 150 258 273 244 192 173 190 218 209 202 201 187 177 181 179 165 161 161 155 151 148 145 144 142 140 137 138 140 141 139 135 134 133 133 135 135 133 132 132 136 140 139 137 136 131 125 120 116 114 113 113 112 109 108 106 104 102 101 100 98 96 95 93 91 89 86 85 84 82 81 80 79 78 76 73 71 69 66 65 66 66 64 65 66
191 113 75 71 75 68 75 228 227 291 274 237 189 162 219 273 248 172 175 215 230 217 196 191 180 169 175 171 157 156 154 151 152 144 138 136 134 137 139 140 142 144 142 140 137 136 136 136 136 134 132 131 133 135 135 135 134 130 125 122 119 118 117 117 115 113 111 110 107 105 103 102 101 99 96 94 92 89 87 84 82 81 80 79 77 76 75 71 69 67 66 64 62 62 61 59 61
146 125 87 78 77 68 59 234 120 336 262 219 185 187 199 270 260 172 186 238 223 190 161 166 168 164 168 163 154 155 151 149 148 138 134 133 133 138 142 144 145 144 143 142 139 139 139 139 138 134 131 134 134 135 136 134 133 129 126 125 124 124 124 123 121 118 116 114 110 107 106 104 103 100 98 96 93 89 87 83 80 78 76 75 72 70 69 67 66 64 62 61 58 58 58 55 55
133 125 111 103 47 45 37 250 151 215 256 214 182 197 202 232 267 168 197 295 109 145 154 164 167 165 165 158 154 155 153 152 146 140 139 138 141 146 146 146 147 146 146 145 142 142 141 141 142 136 133 136 136 137 137 135 133 131 130 129 128 129 130 128 124 122 120 117 114 112 111 109 106 104 100 97 93 90 87 83 80 78 74 72 70 70 70 69 68 65 62 61 59 59 59 56 53
155 132 129 130 148 339 238 207 185 223 251 266 201 209 214 233 255 234 211 157 69 88 158 165 164 162 160 154 154 155 157 158 151 148 148 147 152 154 150 150 151 151 150 147 144 144 144 145 144 139 136 138 139 138 137 135 134 133 133 133 132 133 132 130 128 126 125 124 122 120 117 115 112 108 103 99 96 93 90 86 83 80 78 77 76 75 75 74 71 67 65 64 62 60 60 58 54
184 160 151 162 175 220 237 209 216 234 240 281 279 227 255 271 263 247 220 133 76 6 120 151 155 155 155 153 155 156 159 164 158 153 154 156 161 159 154 154 155 155 153 150 148 148 147 147 146 141 138 140 140 139 138 136 135 136 137 137 137 137 135 134 134 134 133 132 130 126 123 120 116 112 108 104 102 98 92 88 84 82 81 79 77 76 75 74 72 69 66 65 64 61 60 59 52
195 178 171 188 179 191 219 203 226 242 245 299 274 187 190 214 253 270 84 82 38 4 86 125 133 141 143 146 152 156 162 164 157 155 159 161 162 160 156 157 158 157 156 154 152 151 150 149 148 144 141 142 142 141 140 138 138 140 141 141 141 141 140 139 139 138 138 136 134 131 127 124 120 116 113 109 105 99 93 89 86 84 83 80 77 75 74 72 69 68 64 60 59 56 55 56 48
208 177 187 214 195 179 209 191 175 139 350 283 234 232 221 200 155 81 92 79 44 9 94 120 124 134 139 150 159 160 164 163 159 159 160 160 161 160 160 160 161 159 159 158 156 155 155 153 150 147 145 145 145 144 144 143 143 144 144 144 144 144 144 142 140 140 140 139 138 134 130 128 123 118 113 108 103 98 93 91 88 83 80 76 72 69 66 64 63 62 59 56 54 49 47 48 41
186 173 197 205 138 168 210 270 83 101 277 253 176 245 281 253 270 154 133 110 95 280 145 132 137 145 149 162 168 166 168 164 161 161 159 159 160 161 163 163 163 163 162 161 160 160 159 156 153 149 147 148 148 149 149 148 148 147 146 146 146 146 146 144 143 143 142 141 139 136 132 128 122 116 112 108 103 99 95 89 84 78 72 66 61 59 54 52 51 50 48 47 45 41 39 38 32
141 182 193 118 52 31 176 255 350 165 250 256 176 208 225 196 235 174 148 162 171 197 185 148 150 159 164 172 172 171 168 159 158 158 158 160 161 162 164 165 166 166 164 163 163 163 162 159 156 152 151 151 152 153 153 152 151 149 148 149 148 149 148 147 146 145 144 143 140 135 131 126 121 117 113 110 105 98 92 83 74 67 61 54 50 47 44 42 41 39 37 38 37 33 31 29 24
113 183 199 128 116 229 158 187 236 198 229 274 205 205 205 202 207 169 184 199 185 185 188 173 171 174 174 173 171 172 163 158 163 163 161 161 163 165 164 165 167 167 165 164 164 163 161 160 158 155 154 154 155 156 154 153 153 151 150 151 151 151 150 149 148 147 147 144 138 135 132 127 124 119 114 109 102 94 87 79 71 61 55 50 44 39 37 35 35 34 32 32 30 25 21 21 19
48 3 255 149 159 193 177 181 201 187 221 271 234 212 221 217 196 180 195 200 180 177 186 189 184 180 179 173 173 175 169 169 171 168 166 163 164 167 166 166 167 167 166 165 164 163 161 161 159 157 156 156 156 157 156 154 155 154 154 153 153 153 152 152 151 150 148 143 138 136 134 128 122 117 112 108 103 100 95 86 77 68 59 54 43 37 34 25 24 27 28 26 20 16 15 14 13
185 182 197 197 173 138 171 222 201 175 206 242 246 255 248 237 206 185 190 190 180 179 184 188 184 178 181 179 177 178 174 174 174 170 166 162 163 167 168 169 168 166 166 166 164 163 162 162 161 160 159 158 158 159 159 158 158 158 158 156 156 156 155 155 154 152 148 142 139 137 133 128 124 120 119 119 119 119 116 113 110 104 96 84 58 32 23 15 14 16 14 14 10 8 8 3 1
194 191 192 192 183 160 176 227 210 184 196 199 214 260 254 243 334 356 163 170 179 180 178 177 175 176 180 182 182 182 178 174 172 169 165 163 165 167 168 169 168 167 168 167 166 165 164 164 164 164 163 162 163 163 163 162 161 161 161 160 159 159 158 157 154 151 147 143 142 140 135 133 132 131 131 135 140 143 145 147 138 122 101 72 46 24 13 5 3 5 1 360 358 357 356 349 346